Location: Newark
(36.0797°N, 3.9744°E)
Time: 03:26:31
(UTC+00:00)

Vanguard 2 Rocket - Pass Details

Date: 12 December 2019
Orbit: 554 x 3326 km, 32.9° (Epoch: 17 January)

Event Time Altitude Azimuth Distance (km) Brightness Sun altitude
Rises 15:52:07 0° 230° (SW) 7,257 14.1 5.7°
Reaches altitude 10° 15:57:29 10° 226° (SW) 6,085 13.3 4.8°
Maximum altitude 16:14:34 51° 158° (SSE) 2,853 9.6 1.9°
Drops below altitude 10° 16:25:13 10° 87° (E) 3,934 9.6 0.0°
Sets 16:27:53 0° 82° (E) 4,613 9.9 -0.4°
